| time (UTC) | temp C | wind direction | speed KPH | gust KPH | rain 1hr cm | rain 24hr cm | rain mn cm | humidity % | barometer mb |
| 20260905083505 | 26 | 103 | 0.0 | 0.0 | 0.00 | 0.00 | 0.00 | 85 | 1009.9 |
| 20260905083005 | 26 | 162 | 0.0 | 0.0 | 0.00 | 0.00 | 0.00 | 85 | 1009.9 |
| 20260905082505 | 26 | 117 | 0.0 | 0.0 | 0.00 | 0.00 | 0.00 | 85 | 1009.9 |
| 20260905082005 | 26 | 130 | 0.0 | 0.0 | 0.00 | 0.00 | 0.00 | 85 | 1009.9 |
| 20260905081711 | 26 | 118 | 6.4 | 0.0 | 0.00 | 0.00 | 0.00 | 84 | 1009.9 |
| 20260905081005 | 26 | 99 | 0.0 | 0.0 | 0.00 | 0.00 | 0.00 | 84 | 1009.9 |
| 20260905080505 | 26 | 78 | 6.4 | 0.0 | 0.00 | 0.00 | 0.00 | 84 | 1010.3 |
| 20260905080005 | 26 | 35 | 6.4 | 0.0 | 0.00 | 0.00 | 0.00 | 84 | 1010.3 |
| 20260905075505 | 26 | 33 | 6.4 | 0.0 | 0.00 | 0.00 | 0.00 | 84 | 1009.9 |
| 20260905075212 | 26 | 128 | 14.5 | 0.0 | 0.00 | 0.00 | 0.00 | 84 | 1010.3 |
| 20260905074505 | 26 | 109 | 0.0 | 0.0 | 0.00 | 0.00 | 0.00 | 84 | 1010.3 |
| 20260905074005 | 26 | 131 | 0.0 | 0.0 | 0.00 | 0.00 | 0.00 | 84 | 1010.3 |
| 20260905073505 | 26 | 127 | 0.0 | 0.0 | 0.00 | 0.00 | 0.00 | 84 | 1010.3 |
| 20260905073005 | 26 | 99 | 0.0 | 0.0 | 0.00 | 0.00 | 0.00 | 84 | 1010.3 |
| 20260905072505 | 26 | 116 | 0.0 | 0.0 | 0.00 | 0.00 | 0.00 | 84 | 1010.3 |
| 20260905072212 | 26 | 123 | 0.0 | 0.0 | 0.00 | 0.00 | 0.00 | 83 | 1010.6 |
| 20260905071505 | 26 | 83 | 6.4 | 0.0 | 0.00 | 0.00 | 0.00 | 83 | 1010.6 |
| 20260905071005 | 26 | 108 | 6.4 | 0.0 | 0.00 | 0.00 | 0.00 | 83 | 1010.6 |
| 20260905070711 | 26 | 110 | 6.4 | 0.0 | 0.00 | 0.00 | 0.00 | 83 | 1010.6 |
| 20260905070005 | 26 | 130 | 0.0 | 0.0 | 0.00 | 0.00 | 0.00 | 83 | 1010.6 |
| 20260905065713 | 26 | 41 | 20.9 | 0.0 | 0.00 | 0.00 | 0.00 | 83 | 1010.6 |
| 20260905065005 | 26 | 109 | 0.0 | 0.0 | 0.00 | 0.00 | 0.00 | 82 | 1010.6 |
| 20260905064713 | 26 | 48 | 14.5 | 0.0 | 0.00 | 0.00 | 0.00 | 82 | 1010.6 |
| 20260905064005 | 26 | 78 | 6.4 | 0.0 | 0.00 | 0.00 | 0.00 | 82 | 1010.6 |
| 20260905063713 | 26 | 111 | 0.0 | 0.0 | 0.00 | 0.00 | 0.00 | 82 | 1011.0 |
| 20260905063005 | 26 | 85 | 14.5 | 0.0 | 0.00 | 0.00 | 0.00 | 82 | 1010.6 |
| 20260905062505 | 26 | 91 | 0.0 | 0.0 | 0.00 | 0.00 | 0.00 | 82 | 1010.6 |
| 20260905062005 | 26 | 134 | 0.0 | 0.0 | 0.00 | 0.00 | 0.00 | 82 | 1010.6 |
| 20260905061504 | 26 | 120 | 20.9 | 0.0 | 0.00 | 0.00 | 0.00 | 82 | 1010.6 |
| 20260905061005 | 26 | 73 | 6.4 | 0.0 | 0.00 | 0.00 | 0.00 | 82 | 1010.6 |
| 20260905060505 | 26 | 86 | 6.4 | 0.0 | 0.00 | 0.00 | 0.00 | 82 | 1010.6 |
| 20260905060212 | 26 | 106 | 0.0 | 0.0 | 0.00 | 0.00 | 0.00 | 81 | 1010.6 |
| 20260905055505 | 26 | 103 | 0.0 | 0.0 | 0.00 | 0.00 | 0.00 | 81 | 1010.3 |
| 20260905055005 | 26 | 150 | 6.4 | 0.0 | 0.00 | 0.00 | 0.00 | 81 | 1010.6 |
| 20260905054505 | 26 | 141 | 0.0 | 0.0 | 0.00 | 0.00 | 0.00 | 81 | 1010.6 |
| 20260905054005 | 26 | 137 | 0.0 | 0.0 | 0.00 | 0.00 | 0.00 | 80 | 1010.6 |
| 20260905053505 | 26 | 129 | 14.5 | 0.0 | 0.00 | 0.00 | 0.00 | 80 | 1010.6 |
| 20260905053005 | 26 | 64 | 6.4 | 0.0 | 0.00 | 0.00 | 0.00 | 80 | 1010.6 |
| 20260905052505 | 26 | 104 | 14.5 | 0.0 | 0.00 | 0.00 | 0.00 | 80 | 1010.6 |
| 20260905052005 | 26 | 21 | 6.4 | 0.0 | 0.00 | 0.00 | 0.00 | 80 | 1010.6 |
| 20260905051505 | 26 | 97 | 14.5 | 0.0 | 0.00 | 0.00 | 0.00 | 80 | 1010.6 |
| 20260905051005 | 26 | 44 | 6.4 | 0.0 | 0.00 | 0.00 | 0.00 | 80 | 1010.6 |
| 20260905050505 | 26 | 131 | 20.9 | 0.0 | 0.00 | 0.00 | 0.00 | 80 | 1011.0 |
| 20260905045505 | 26 | 28 | 14.5 | 0.0 | 0.00 | 0.00 | 0.00 | 79 | 1010.6 |
| 20260905045005 | 26 | 142 | 0.0 | 0.0 | 0.00 | 0.00 | 0.00 | 79 | 1010.3 |
| 20260905044505 | 26 | 48 | 14.5 | 0.0 | 0.00 | 0.00 | 0.00 | 79 | 1010.3 |
| 20260905044005 | 26 | 38 | 14.5 | 0.0 | 0.00 | 0.00 | 0.00 | 79 | 1010.3 |
| 20260905043505 | 26 | 144 | 20.9 | 0.0 | 0.00 | 0.00 | 0.00 | 79 | 1010.6 |
| 20260905043213 | 26 | 128 | 0.0 | 0.0 | 0.00 | 0.00 | 0.00 | 78 | 1010.6 |
| 20260905042504 | 26 | 59 | 20.9 | 0.0 | 0.00 | 0.00 | 0.00 | 78 | 1010.6 |
| 20260905042005 | 26 | 98 | 6.4 | 0.0 | 0.00 | 0.00 | 0.00 | 78 | 1010.6 |
| 20260905041505 | 26 | 72 | 29.0 | 0.0 | 0.00 | 0.00 | 0.00 | 77 | 1011.0 |
| 20260905041005 | 27 | 334 | 29.0 | 0.0 | 0.00 | 0.00 | 0.00 | 77 | 1011.0 |
| 20260905040505 | 27 | 122 | 6.4 | 0.0 | 0.00 | 0.00 | 0.00 | 77 | 1010.6 |
| 20260905040213 | 27 | 109 | 6.4 | 0.0 | 0.00 | 0.00 | 0.00 | 77 | 1011.0 |
| 20260905035712 | 27 | 46 | 20.9 | 0.0 | 0.00 | 0.00 | 0.00 | 76 | 1010.6 |
| 20260905035005 | 27 | 77 | 29.0 | 0.0 | 0.00 | 0.00 | 0.00 | 76 | 1011.3 |
| 20260905034712 | 27 | 134 | 14.5 | 0.0 | 0.00 | 0.00 | 0.00 | 75 | 1011.0 |
| 20260905034005 | 27 | 51 | 6.4 | 0.0 | 0.00 | 0.00 | 0.00 | 75 | 1011.0 |
| 20260905033505 | 27 | 111 | 6.4 | 0.0 | 0.00 | 0.00 | 0.00 | 75 | 1011.0 |
| 20260905033211 | 27 | 142 | 20.9 | 0.0 | 0.00 | 0.00 | 0.00 | 74 | 1011.0 |
| 20260905032505 | 27 | 57 | 14.5 | 0.0 | 0.00 | 0.00 | 0.00 | 74 | 1010.6 |
| 20260905032213 | 27 | 11 | 14.5 | 0.0 | 0.00 | 0.00 | 0.00 | 74 | 1011.0 |
| 20260905031505 | 27 | 154 | 37.0 | 0.0 | 0.00 | 0.00 | 0.00 | 74 | 1010.6 |
| 20260905031005 | 27 | 82 | 14.5 | 0.0 | 0.00 | 0.00 | 0.00 | 73 | 1010.6 |
| 20260905030505 | 27 | 113 | 6.4 | 0.0 | 0.00 | 0.00 | 0.00 | 73 | 1010.6 |
| 20260905030005 | 27 | 65 | 14.5 | 0.0 | 0.00 | 0.00 | 0.00 | 73 | 1010.6 |
| 20260905025504 | 27 | 37 | 6.4 | 0.0 | 0.00 | 0.00 | 0.00 | 72 | 1010.6 |
| 20260905025005 | 27 | 76 | 14.5 | 0.0 | 0.00 | 0.00 | 0.00 | 72 | 1010.3 |
| 20260905024712 | 27 | 57 | 37.0 | 0.0 | 0.00 | 0.00 | 0.00 | 72 | 1010.3 |
| 20260905024005 | 27 | 159 | 20.9 | 0.0 | 0.00 | 0.00 | 0.00 | 71 | 1010.3 |
| 20260905023505 | 27 | 71 | 6.4 | 0.0 | 0.00 | 0.00 | 0.00 | 71 | 1010.3 |
| 20260905023005 | 27 | 72 | 29.0 | 0.0 | 0.00 | 0.00 | 0.00 | 70 | 1010.6 |
| 20260905022505 | 27 | 85 | 6.4 | 0.0 | 0.00 | 0.00 | 0.00 | 70 | 1010.3 |
| 20260905022005 | 27 | 96 | 6.4 | 0.0 | 0.00 | 0.00 | 0.00 | 69 | 1009.9 |
| 20260905021505 | 27 | 51 | 6.4 | 0.0 | 0.00 | 0.00 | 0.00 | 69 | 1009.6 |
| 20260905021212 | 28 | 67 | 29.0 | 0.0 | 0.00 | 0.00 | 0.00 | 69 | 1009.6 |
| 20260905020504 | 28 | 105 | 6.4 | 0.0 | 0.00 | 0.00 | 0.00 | 68 | 1009.6 |
| 20260905020005 | 28 | 86 | 20.9 | 0.0 | 0.00 | 0.00 | 0.00 | 68 | 1009.6 |
| 20260905015505 | 28 | 49 | 14.5 | 0.0 | 0.00 | 0.00 | 0.00 | 68 | 1009.6 |
| 20260905015005 | 28 | 77 | 29.0 | 0.0 | 0.00 | 0.00 | 0.00 | 67 | 1009.3 |
| 20260905014505 | 28 | 102 | 20.9 | 0.0 | 0.00 | 0.00 | 0.00 | 67 | 1009.3 |
| 20260905014212 | 28 | 333 | 20.9 | 0.0 | 0.00 | 0.00 | 0.00 | 66 | 1009.3 |
| 20260905013505 | 28 | 107 | 20.9 | 0.0 | 0.00 | 0.00 | 0.00 | 66 | 1009.6 |
| 20260905013005 | 28 | 64 | 29.0 | 0.0 | 0.00 | 0.00 | 0.00 | 65 | 1009.6 |
| 20260905012505 | 28 | 98 | 6.4 | 0.0 | 0.00 | 0.00 | 0.00 | 65 | 1009.3 |
| 20260905012212 | 28 | 49 | 43.5 | 0.0 | 0.00 | 0.00 | 0.00 | 65 | 1009.3 |
| 20260905011505 | 28 | 101 | 29.0 | 0.0 | 0.00 | 0.00 | 0.00 | 65 | 1008.9 |
| 20260905011004 | 28 | 137 | 14.5 | 0.0 | 0.00 | 0.00 | 0.00 | 64 | 1009.3 |
| 20260905010505 | 28 | 85 | 29.0 | 0.0 | 0.00 | 0.00 | 0.00 | 64 | 1008.9 |
| 20260905010005 | 28 | 82 | 14.5 | 0.0 | 0.00 | 0.00 | 0.00 | 64 | 1008.9 |
| 20260905005713 | 28 | 11 | 43.5 | 0.0 | 0.00 | 0.00 | 0.00 | 63 | 1008.9 |
| 20260905005005 | 28 | 53 | 14.5 | 0.0 | 0.00 | 0.00 | 0.00 | 63 | 1008.9 |
| 20260905004505 | 29 | 67 | 51.5 | 0.0 | 0.00 | 0.00 | 0.00 | 63 | 1008.9 |
| 20260905004005 | 29 | 80 | 37.0 | 0.0 | 0.00 | 0.00 | 0.00 | 62 | 1008.9 |
| 20260905003505 | 29 | 56 | 43.5 | 0.0 | 0.00 | 0.00 | 0.00 | 61 | 1008.6 |
| 20260905003005 | 30 | 39 | 20.9 | 0.0 | 0.00 | 0.00 | 0.00 | 60 | 1008.6 |
| 20260905002713 | 30 | 84 | 37.0 | 0.0 | 0.00 | 0.00 | 0.00 | 59 | 1008.6 |
| 20260905002212 | 30 | 85 | 51.5 | 0.0 | 0.00 | 0.00 | 0.00 | 58 | 1008.6 |
| 20260905001505 | 30 | 187 | 14.5 | 0.0 | 0.00 | 0.00 | 0.00 | 57 | 1008.6 |
| 20260905001005 | 30 | 100 | 37.0 | 0.0 | 0.00 | 0.00 | 0.00 | 57 | 1008.6 |
| 20260905000505 | 30 | 115 | 14.5 | 0.0 | 0.00 | 0.00 | 0.00 | 55 | 1008.2 |
| 20260905000005 | 31 | 309 | 14.5 | 0.0 | 0.00 | 0.00 | 0.00 | 54 | 1008.2 |
| 20260904235504 | 31 | 168 | 29.0 | 0.0 | 0.00 | 0.00 | 0.00 | 53 | 1008.2 |
| 20260904235005 | 31 | 79 | 43.5 | 0.0 | 0.00 | 0.00 | 0.00 | 51 | 1007.9 |
| 20260904234505 | 31 | 84 | 6.4 | 0.0 | 0.00 | 0.00 | 0.00 | 50 | 1007.9 |
| 20260904234005 | 31 | 103 | 43.5 | 0.0 | 0.00 | 0.00 | 0.00 | 49 | 1007.9 |
| 20260904233505 | 31 | 57 | 6.4 | 0.0 | 0.00 | 0.00 | 0.00 | 49 | 1007.9 |
| 20260904233005 | 31 | 80 | 20.9 | 0.0 | 0.00 | 0.00 | 0.00 | 48 | 1007.9 |
| 20260904232712 | 31 | 156 | 29.0 | 0.0 | 0.00 | 0.00 | 0.00 | 47 | 1007.9 |
| 20260904232211 | 31 | 158 | 14.5 | 0.0 | 0.00 | 0.00 | 0.00 | 46 | 1007.9 |
| 20260904231505 | 32 | 76 | 20.9 | 0.0 | 0.00 | 0.00 | 0.00 | 46 | 1007.9 |
| 20260904231005 | 32 | 45 | 37.0 | 0.0 | 0.00 | 0.00 | 0.00 | 46 | 1007.9 |
| 20260904230505 | 32 | 239 | 14.5 | 0.0 | 0.00 | 0.00 | 0.00 | 45 | 1007.9 |
| 20260904230005 | 32 | 45 | 29.0 | 0.0 | 0.00 | 0.00 | 0.00 | 45 | 1007.6 |
| 20260904225505 | 32 | 144 | 20.9 | 0.0 | 0.00 | 0.00 | 0.00 | 44 | 1007.6 |
| 20260904225005 | 32 | 105 | 14.5 | 0.0 | 0.00 | 0.00 | 0.00 | 45 | 1007.6 |
| 20260904224505 | 32 | 72 | 29.0 | 0.0 | 0.00 | 0.00 | 0.00 | 43 | 1007.9 |
| 20260904224005 | 33 | 80 | 37.0 | 0.0 | 0.00 | 0.00 | 0.00 | 42 | 1007.9 |
| 20260904223505 | 33 | 67 | 37.0 | 0.0 | 0.00 | 0.00 | 0.00 | 42 | 1007.6 |
| 20260904223005 | 33 | 73 | 20.9 | 0.0 | 0.00 | 0.00 | 0.00 | 41 | 1007.6 |
| 20260904222505 | 33 | 86 | 20.9 | 0.0 | 0.00 | 0.00 | 0.00 | 41 | 1007.9 |
| 20260904222005 | 33 | 113 | 20.9 | 0.0 | 0.00 | 0.00 | 0.00 | 41 | 1007.6 |
| 20260904221505 | 33 | 121 | 20.9 | 0.0 | 0.00 | 0.00 | 0.00 | 40 | 1007.6 |
| 20260904221005 | 33 | 98 | 20.9 | 0.0 | 0.00 | 0.00 | 0.00 | 40 | 1007.6 |
| 20260904220505 | 32 | 140 | 14.5 | 0.0 | 0.00 | 0.00 | 0.00 | 42 | 1007.6 |
| 20260904220005 | 33 | 7 | 37.0 | 0.0 | 0.00 | 0.00 | 0.00 | 42 | 1007.6 |
| 20260904215505 | 33 | 148 | 37.0 | 0.0 | 0.00 | 0.00 | 0.00 | 41 | 1007.6 |
| 20260904215005 | 33 | 63 | 20.9 | 0.0 | 0.00 | 0.00 | 0.00 | 38 | 1007.6 |
| 20260904214505 | 34 | 190 | 0.0 | 0.0 | 0.00 | 0.00 | 0.00 | 37 | 1007.6 |
| 20260904214005 | 33 | 23 | 29.0 | 0.0 | 0.00 | 0.00 | 0.00 | 39 | 1007.6 |
| 20260904213505 | 33 | 149 | 6.4 | 0.0 | 0.00 | 0.00 | 0.00 | 40 | 1007.6 |
| 20260904213005 | 34 | 102 | 20.9 | 0.0 | 0.00 | 0.00 | 0.00 | 38 | 1007.6 |
| 20260904212505 | 34 | 92 | 37.0 | 0.0 | 0.00 | 0.00 | 0.00 | 37 | 1007.6 |
| 20260904212005 | 34 | 162 | 6.4 | 0.0 | 0.00 | 0.00 | 0.00 | 38 | 1007.6 |
| 20260904211505 | 33 | 139 | 29.0 | 0.0 | 0.00 | 0.00 | 0.00 | 39 | 1007.6 |
| 20260904211212 | 34 | 74 | 6.4 | 0.0 | 0.00 | 0.00 | 0.00 | 37 | 1007.6 |
| 20260904210505 | 34 | 77 | 6.4 | 0.0 | 0.00 | 0.00 | 0.00 | 36 | 1007.9 |
| 20260904210005 | 34 | 122 | 20.9 | 0.0 | 0.00 | 0.00 | 0.00 | 36 | 1007.6 |
| 20260904205504 | 33 | 150 | 14.5 | 0.0 | 0.00 | 0.00 | 0.00 | 36 | 1007.9 |
| 20260904205005 | 33 | 75 | 14.5 | 0.0 | 0.00 | 0.00 | 0.00 | 36 | 1007.9 |
| 20260904204505 | 33 | 174 | 51.5 | 0.0 | 0.00 | 0.00 | 0.00 | 35 | 1007.9 |
| 20260904204005 | 33 | 101 | 14.5 | 0.0 | 0.00 | 0.00 | 0.00 | 35 | 1007.9 |
| 20260904203505 | 33 | 69 | 6.4 | 0.0 | 0.00 | 0.00 | 0.00 | 35 | 1007.9 |
| 20260904203212 | 33 | 124 | 14.5 | 0.0 | 0.00 | 0.00 | 0.00 | 36 | 1007.9 |
| 20260904202505 | 33 | 165 | 6.4 | 0.0 | 0.00 | 0.00 | 0.00 | 36 | 1007.9 |
| 20260904202005 | 33 | 150 | 51.5 | 0.0 | 0.00 | 0.00 | 0.00 | 36 | 1008.2 |
| 20260904201711 | 33 | 96 | 6.4 | 0.0 | 0.00 | 0.00 | 0.00 | 36 | 1008.2 |
| 20260904201005 | 33 | 68 | 6.4 | 0.0 | 0.00 | 0.00 | 0.00 | 37 | 1007.9 |
| 20260904200505 | 34 | 120 | 0.0 | 0.0 | 0.00 | 0.00 | 0.00 | 36 | 1008.2 |
| 20260904200005 | 34 | 175 | 14.5 | 0.0 | 0.00 | 0.00 | 0.00 | 35 | 1008.2 |
| 20260904195505 | 34 | 158 | 14.5 | 0.0 | 0.00 | 0.00 | 0.00 | 34 | 1008.2 |
| 20260904195005 | 33 | 108 | 20.9 | 0.0 | 0.00 | 0.00 | 0.00 | 34 | 1008.6 |
| 20260904194504 | 33 | 113 | 20.9 | 0.0 | 0.00 | 0.00 | 0.00 | 37 | 1008.6 |
| 20260904194005 | 33 | 162 | 6.4 | 0.0 | 0.00 | 0.00 | 0.00 | 39 | 1008.6 |
| 20260904193505 | 33 | 62 | 6.4 | 0.0 | 0.00 | 0.00 | 0.00 | 38 | 1008.6 |
| 20260904193212 | 33 | 166 | 6.4 | 0.0 | 0.00 | 0.00 | 0.00 | 41 | 1008.6 |
| 20260904192713 | 33 | 30 | 14.5 | 0.0 | 0.00 | 0.00 | 0.00 | 37 | 1008.9 |
| 20260904192005 | 34 | 127 | 14.5 | 0.0 | 0.00 | 0.00 | 0.00 | 36 | 1008.9 |
| 20260904191505 | 33 | 178 | 14.5 | 0.0 | 0.00 | 0.00 | 0.00 | 39 | 1008.9 |
| 20260904191005 | 33 | 69 | 29.0 | 0.0 | 0.00 | 0.00 | 0.00 | 40 | 1008.9 |
| 20260904190505 | 33 | 111 | 6.4 | 0.0 | 0.00 | 0.00 | 0.00 | 41 | 1008.9 |
| 20260904190005 | 33 | 40 | 6.4 | 0.0 | 0.00 | 0.00 | 0.00 | 40 | 1008.9 |
| 20260904185504 | 33 | 169 | 43.5 | 0.0 | 0.00 | 0.00 | 0.00 | 41 | 1008.9 |
| 20260904185005 | 33 | 151 | 6.4 | 0.0 | 0.00 | 0.00 | 0.00 | 43 | 1009.3 |
| 20260904184713 | 32 | 44 | 14.5 | 0.0 | 0.00 | 0.00 | 0.00 | 44 | 1009.3 |
| 20260904184005 | 32 | 37 | 14.5 | 0.0 | 0.00 | 0.00 | 0.00 | 44 | 1009.3 |
| 20260904183505 | 33 | 39 | 6.4 | 0.0 | 0.00 | 0.00 | 0.00 | 44 | 1009.3 |
| 20260904183212 | 33 | 139 | 14.5 | 0.0 | 0.00 | 0.00 | 0.00 | 41 | 1009.6 |
| 20260904182505 | 33 | 93 | 6.4 | 0.0 | 0.00 | 0.00 | 0.00 | 41 | 1009.6 |
| 20260904182005 | 33 | 153 | 14.5 | 0.0 | 0.00 | 0.00 | 0.00 | 41 | 1009.3 |
| 20260904181505 | 33 | 118 | 29.0 | 0.0 | 0.00 | 0.00 | 0.00 | 42 | 1009.6 |
| 20260904181005 | 33 | 48 | 37.0 | 0.0 | 0.00 | 0.00 | 0.00 | 42 | 1009.9 |
| 20260904180505 | 33 | 42 | 20.9 | 0.0 | 0.00 | 0.00 | 0.00 | 42 | 1009.9 |
| 20260904180005 | 33 | 130 | 0.0 | 0.0 | 0.00 | 0.00 | 0.00 | 43 | 1009.6 |
| 20260904175505 | 33 | 122 | 14.5 | 0.0 | 0.00 | 0.00 | 0.00 | 42 | 1009.9 |
| 20260904175213 | 33 | 118 | 6.4 | 0.0 | 0.00 | 0.00 | 0.00 | 43 | 1009.9 |
| 20260904174505 | 32 | 40 | 6.4 | 0.0 | 0.00 | 0.00 | 0.00 | 44 | 1009.9 |
| 20260904174005 | 32 | 84 | 14.5 | 0.0 | 0.00 | 0.00 | 0.00 | 44 | 1010.3 |
| 20260904173505 | 32 | 183 | 20.9 | 0.0 | 0.00 | 0.00 | 0.00 | 46 | 1010.3 |
| 20260904173004 | 32 | 71 | 20.9 | 0.0 | 0.00 | 0.00 | 0.00 | 47 | 1010.3 |
| 20260904172505 | 32 | 174 | 20.9 | 0.0 | 0.00 | 0.00 | 0.00 | 43 | 1010.6 |
| 20260904172005 | 32 | 177 | 14.5 | 0.0 | 0.00 | 0.00 | 0.00 | 46 | 1010.3 |
| 20260904171505 | 31 | 85 | 20.9 | 0.0 | 0.00 | 0.00 | 0.00 | 48 | 1010.3 |
| 20260904171005 | 31 | 148 | 6.4 | 0.0 | 0.00 | 0.00 | 0.00 | 48 | 1010.3 |
| 20260904170505 | 32 | 179 | 20.9 | 0.0 | 0.00 | 0.00 | 0.00 | 47 | 1010.6 |
| 20260904170005 | 31 | 125 | 6.4 | 0.0 | 0.00 | 0.00 | 0.00 | 49 | 1010.6 |
| 20260904165505 | 31 | 99 | 20.9 | 0.0 | 0.00 | 0.00 | 0.00 | 50 | 1010.6 |
| 20260904165005 | 31 | 149 | 29.0 | 0.0 | 0.00 | 0.00 | 0.00 | 49 | 1010.6 |
| 20260904164505 | 31 | 119 | 29.0 | 0.0 | 0.00 | 0.00 | 0.00 | 51 | 1010.6 |
| 20260904164005 | 31 | 172 | 43.5 | 0.0 | 0.00 | 0.00 | 0.00 | 52 | 1010.6 |
| 20260904163505 | 31 | 21 | 20.9 | 0.0 | 0.00 | 0.00 | 0.00 | 50 | 1011.0 |
| 20260904163005 | 31 | 32 | 14.5 | 0.0 | 0.00 | 0.00 | 0.00 | 50 | 1011.0 |
| 20260904162505 | 31 | 177 | 20.9 | 0.0 | 0.00 | 0.00 | 0.00 | 52 | 1010.6 |
| 20260904162005 | 31 | 128 | 6.4 | 0.0 | 0.00 | 0.00 | 0.00 | 54 | 1010.6 |
| 20260904161505 | 31 | 22 | 20.9 | 0.0 | 0.00 | 0.00 | 0.00 | 54 | 1010.6 |
| 20260904161005 | 31 | 173 | 6.4 | 0.0 | 0.00 | 0.00 | 0.00 | 55 | 1011.0 |
| 20260904160505 | 30 | 187 | 14.5 | 0.0 | 0.00 | 0.00 | 0.00 | 56 | 1010.6 |
| 20260904160005 | 30 | 58 | 20.9 | 0.0 | 0.00 | 0.00 | 0.00 | 58 | 1011.0 |
| 20260904155505 | 30 | 60 | 14.5 | 0.0 | 0.00 | 0.00 | 0.00 | 58 | 1010.6 |
| 20260904155005 | 30 | 138 | 29.0 | 0.0 | 0.00 | 0.00 | 0.00 | 58 | 1010.6 |
| 20260904154713 | 30 | 119 | 14.5 | 0.0 | 0.00 | 0.00 | 0.00 | 59 | 1010.6 |
| 20260904154212 | 30 | 40 | 20.9 | 0.0 | 0.00 | 0.00 | 0.00 | 56 | 1010.6 |
| 20260904153505 | 30 | 105 | 14.5 | 0.0 | 0.00 | 0.00 | 0.00 | 59 | 1011.0 |
| 20260904153005 | 30 | 64 | 20.9 | 0.0 | 0.00 | 0.00 | 0.00 | 61 | 1011.0 |
| 20260904152713 | 29 | 99 | 37.0 | 0.0 | 0.00 | 0.00 | 0.00 | 61 | 1011.0 |
| 20260904152005 | 29 | 29 | 29.0 | 0.0 | 0.00 | 0.00 | 0.00 | 64 | 1011.0 |
| 20260904151711 | 28 | 110 | 20.9 | 0.0 | 0.00 | 0.00 | 0.00 | 64 | 1011.0 |
| 20260904151005 | 28 | 64 | 20.9 | 0.0 | 0.00 | 0.00 | 0.00 | 67 | 1011.0 |
| 20260904150505 | 28 | 96 | 14.5 | 0.0 | 0.00 | 0.00 | 0.00 | 66 | 1011.0 |
| 20260904150005 | 28 | 111 | 20.9 | 0.0 | 0.00 | 0.00 | 0.00 | 67 | 1010.6 |
| 20260904145713 | 28 | 114 | 43.5 | 0.0 | 0.00 | 0.00 | 0.00 | 68 | 1010.6 |
| 20260904145005 | 28 | 158 | 20.9 | 0.0 | 0.00 | 0.00 | 0.00 | 69 | 1010.6 |
| 20260904144505 | 28 | 175 | 14.5 | 0.0 | 0.00 | 0.00 | 0.00 | 71 | 1010.6 |
| 20260904144005 | 27 | 169 | 14.5 | 0.0 | 0.00 | 0.00 | 0.00 | 73 | 1010.6 |
| 20260904143505 | 27 | 13 | 6.4 | 0.0 | 0.00 | 0.00 | 0.00 | 75 | 1010.6 |
| 20260904143005 | 27 | 160 | 14.5 | 0.0 | 0.00 | 0.00 | 0.00 | 74 | 1011.0 |
| 20260904142504 | 27 | 116 | 14.5 | 0.0 | 0.00 | 0.00 | 0.00 | 75 | 1010.6 |
| 20260904142005 | 27 | 101 | 29.0 | 0.0 | 0.00 | 0.00 | 0.00 | 76 | 1011.0 |
| 20260904141505 | 27 | 166 | 14.5 | 0.0 | 0.00 | 0.00 | 0.00 | 77 | 1010.6 |
| 20260904141005 | 27 | 142 | 14.5 | 0.0 | 0.00 | 0.00 | 0.00 | 77 | 1010.6 |
| 20260904140713 | 27 | 148 | 20.9 | 0.0 | 0.00 | 0.00 | 0.00 | 77 | 1010.6 |
| 20260904140004 | 26 | 160 | 20.9 | 0.0 | 0.00 | 0.00 | 0.00 | 78 | 1010.6 |
| 20260904135505 | 26 | 78 | 14.5 | 0.0 | 0.00 | 0.00 | 0.00 | 79 | 1010.6 |
| 20260904135212 | 26 | 133 | 14.5 | 0.0 | 0.00 | 0.00 | 0.00 | 79 | 1010.6 |
| 20260904134505 | 26 | 101 | 20.9 | 0.0 | 0.00 | 0.00 | 0.00 | 79 | 1010.6 |
| 20260904134005 | 26 | 47 | 6.4 | 0.0 | 0.00 | 0.00 | 0.00 | 80 | 1010.6 |
| 20260904133505 | 26 | 129 | 6.4 | 0.0 | 0.00 | 0.00 | 0.00 | 81 | 1010.6 |
| 20260904133005 | 26 | 134 | 6.4 | 0.0 | 0.00 | 0.00 | 0.00 | 81 | 1010.6 |
| 20260904132505 | 26 | 94 | 14.5 | 0.0 | 0.00 | 0.00 | 0.00 | 81 | 1010.6 |
| 20260904132005 | 26 | 127 | 0.0 | 0.0 | 0.00 | 0.00 | 0.00 | 82 | 1010.3 |
| 20260904131504 | 26 | 88 | 6.4 | 0.0 | 0.00 | 0.00 | 0.00 | 82 | 1010.6 |
| 20260904131005 | 26 | 24 | 14.5 | 0.0 | 0.00 | 0.00 | 0.00 | 83 | 1010.3 |
| 20260904130505 | 25 | 111 | 0.0 | 0.0 | 0.00 | 0.00 | 0.00 | 83 | 1010.6 |
| 20260904130005 | 25 | 76 | 6.4 | 0.0 | 0.00 | 0.00 | 0.00 | 84 | 1010.3 |
| 20260904125505 | 25 | 110 | 6.4 | 0.0 | 0.00 | 0.00 | 0.00 | 84 | 1010.3 |
| 20260904125005 | 25 | 141 | 0.0 | 0.0 | 0.00 | 0.00 | 0.00 | 84 | 1010.3 |
| 20260904124505 | 25 | 53 | 14.5 | 0.0 | 0.00 | 0.00 | 0.00 | 85 | 1010.3 |
| 20260904124005 | 25 | 149 | 0.0 | 0.0 | 0.00 | 0.00 | 0.00 | 85 | 1010.3 |
| 20260904123712 | 25 | 115 | 6.4 | 0.0 | 0.00 | 0.00 | 0.00 | 85 | 1010.3 |
| 20260904123005 | 25 | 34 | 6.4 | 0.0 | 0.00 | 0.00 | 0.00 | 86 | 1009.9 |
| 20260904122505 | 25 | 116 | 14.5 | 0.0 | 0.00 | 0.00 | 0.00 | 86 | 1010.3 |
| 20260904122211 | 25 | 73 | 6.4 | 0.0 | 0.00 | 0.00 | 0.00 | 86 | 1010.3 |
| 20260904121505 | 25 | 120 | 0.0 | 0.0 | 0.00 | 0.00 | 0.00 | 86 | 1009.6 |
| 20260904121005 | 25 | 110 | 0.0 | 0.0 | 0.00 | 0.00 | 0.00 | 86 | 1009.9 |
| 20260904120505 | 25 | 114 | 6.4 | 0.0 | 0.00 | 0.00 | 0.00 | 86 | 1009.9 |
| 20260904120213 | 25 | 119 | 14.5 | 0.0 | 0.00 | 0.00 | 0.00 | 86 | 1009.6 |
| 20260904115505 | 25 | 115 | 0.0 | 0.0 | 0.00 | 0.00 | 0.00 | 86 | 1009.6 |
| 20260904115005 | 25 | 124 | 0.0 | 0.0 | 0.00 | 0.00 | 0.00 | 86 | 1009.6 |
| 20260904114505 | 25 | 93 | 14.5 | 0.0 | 0.00 | 0.00 | 0.00 | 86 | 1009.6 |
| 20260904114004 | 25 | 115 | 0.0 | 0.0 | 0.00 | 0.00 | 0.00 | 86 | 1009.3 |
| 20260904113505 | 25 | 58 | 6.4 | 0.0 | 0.00 | 0.00 | 0.00 | 86 | 1009.6 |
| 20260904113005 | 25 | 102 | 14.5 | 0.0 | 0.00 | 0.00 | 0.00 | 86 | 1009.6 |
| 20260904112505 | 25 | 138 | 0.0 | 0.0 | 0.00 | 0.00 | 0.00 | 86 | 1009.6 |
| 20260904112005 | 25 | 108 | 0.0 | 0.0 | 0.00 | 0.00 | 0.00 | 85 | 1009.3 |
| 20260904111505 | 25 | 121 | 0.0 | 0.0 | 0.00 | 0.00 | 0.00 | 85 | 1009.6 |
| 20260904111005 | 25 | 134 | 0.0 | 0.0 | 0.00 | 0.00 | 0.00 | 85 | 1009.6 |
| 20260904110505 | 25 | 111 | 0.0 | 0.0 | 0.00 | 0.00 | 0.00 | 85 | 1009.6 |
| 20260904110005 | 25 | 91 | 0.0 | 0.0 | 0.00 | 0.00 | 0.00 | 85 | 1009.6 |
| 20260904105504 | 25 | 107 | 0.0 | 0.0 | 0.00 | 0.00 | 0.00 | 85 | 1009.6 |
| 20260904105213 | 25 | 124 | 0.0 | 0.0 | 0.00 | 0.00 | 0.00 | 84 | 1009.6 |
| 20260904104505 | 25 | 89 | 0.0 | 0.0 | 0.00 | 0.00 | 0.00 | 84 | 1009.6 |
| 20260904104004 | 25 | 93 | 6.4 | 0.0 | 0.00 | 0.00 | 0.00 | 84 | 1009.6 |
| 20260904103714 | 26 | 48 | 14.5 | 0.0 | 0.00 | 0.00 | 0.00 | 83 | 1009.6 |
| 20260904103005 | 26 | 128 | 0.0 | 0.0 | 0.00 | 0.00 | 0.00 | 83 | 1009.3 |
| 20260904102711 | 26 | 109 | 0.0 | 0.0 | 0.00 | 0.00 | 0.00 | 82 | 1009.3 |
| 20260904102005 | 26 | 150 | 14.5 | 0.0 | 0.00 | 0.00 | 0.00 | 82 | 1009.3 |
| 20260904101505 | 26 | 92 | 6.4 | 0.0 | 0.00 | 0.00 | 0.00 | 82 | 1008.9 |
| 20260904101005 | 26 | 116 | 6.4 | 0.0 | 0.00 | 0.00 | 0.00 | 82 | 1009.3 |
| 20260904100713 | 26 | 116 | 0.0 | 0.0 | 0.00 | 0.00 | 0.00 | 82 | 1009.3 |
| 20260904100212 | 26 | 71 | 0.0 | 0.0 | 0.00 | 0.00 | 0.00 | 82 | 1009.6 |
| 20260904095711 | 26 | 121 | 6.4 | 0.0 | 0.00 | 0.00 | 0.00 | 82 | 1009.3 |
| 20260904095005 | 26 | 179 | 14.5 | 0.0 | 0.00 | 0.00 | 0.00 | 82 | 1009.3 |
| 20260904094711 | 26 | 126 | 6.4 | 0.0 | 0.00 | 0.00 | 0.00 | 81 | 1009.6 |
| 20260904094005 | 26 | 162 | 14.5 | 0.0 | 0.00 | 0.00 | 0.00 | 81 | 1009.6 |
| 20260904093505 | 26 | 115 | 6.4 | 0.0 | 0.00 | 0.00 | 0.00 | 81 | 1009.6 |
| 20260904093212 | 26 | 118 | 6.4 | 0.0 | 0.00 | 0.00 | 0.00 | 81 | 1009.6 |
| 20260904092713 | 26 | 105 | 0.0 | 0.0 | 0.00 | 0.00 | 0.00 | 81 | 1009.3 |
| 20260904092005 | 26 | 91 | 6.4 | 0.0 | 0.00 | 0.00 | 0.00 | 81 | 1009.3 |
| 20260904091505 | 26 | 74 | 6.4 | 0.0 | 0.00 | 0.00 | 0.00 | 81 | 1009.6 |
| 20260904091005 | 26 | 95 | 14.5 | 0.0 | 0.00 | 0.00 | 0.00 | 80 | 1009.6 |
| 20260904090713 | 26 | 53 | 0.0 | 0.0 | 0.00 | 0.00 | 0.00 | 80 | 1009.3 |
| 20260904090005 | 26 | 28 | 6.4 | 0.0 | 0.00 | 0.00 | 0.00 | 80 | 1009.6 |
| 20260904085505 | 26 | 120 | 6.4 | 0.0 | 0.00 | 0.00 | 0.00 | 80 | 1009.6 |
| 20260904085005 | 26 | 188 | 14.5 | 0.0 | 0.00 | 0.00 | 0.00 | 80 | 1009.6 |
| 20260904084505 | 26 | 84 | 6.4 | 0.0 | 0.00 | 0.00 | 0.00 | 79 | 1009.6 |
| 20260904084212 | 26 | 99 | 20.9 | 0.0 | 0.00 | 0.00 | 0.00 | 79 | 1009.6 |